Printer-friendly version
Follow the MPC on Twitter Follow the MPC on Facebook The MPC blog
Minor Planet Center

MPEC 2010-G60 : 2010 GL23

The following Minor Planet Electronic Circular may be linked-to from your own Web pages, but must not otherwise be redistributed electronically.

A form allowing access to any MPEC is at the bottom of this page.


Read MPEC 2010-G59 Read MPEC 2010-G61


M.P.E.C. 2010-G60                                Issued 2010 Apr.  9, 15:40 UT

     The Minor Planet Electronic Circulars contain information on unusual
         minor planets and routine data on comets.  They are published
   on behalf of Commission 20 of the International Astronomical Union by the
          Minor Planet Center, Smithsonian Astrophysical Observatory,
                          Cambridge, MA 02138, U.S.A.

             Prepared using the Tamkin Foundation Computer Network

                              MPC@CFA.HARVARD.EDU
       URL http://www.minorplanetcenter.org/iau/mpc.html  ISSN 1523-6714

                                   2010 GL23

Observations:
     K10G23L* C2010 04 08.31020 14 00 17.78 -27 05 15.0          20.1 V EG060703
     K10G23L  C2010 04 08.31635 14 00 16.09 -27 04 43.8          19.8 V EG060703
     K10G23L  C2010 04 08.32252 14 00 14.36 -27 04 10.5          20.1 V EG060703
     K10G23L  C2010 04 08.32875 14 00 12.70 -27 03 34.6          18.8 V EG060703
     K10G23L  C2010 04 08.34341 14 00 08.71 -27 02 14.7                 EG060703
     K10G23L  C2010 04 08.34410 14 00 08.42 -27 02 14.4          19.8 V EG060703
     K10G23L  C2010 04 08.34479 14 00 08.31 -27 02 09.0                 EG060703
     K10G23L  C2010 04 08.35764 14 00 04.70 -27 01 00.7          19.7 V EG060703
     K10G23L  C2010 04 08.36429 14 00 02.92 -27 00 24.9          19.5 V EG060703
     K10G23L  C2010 04 08.37320 14 00 00.26 -26 59 36.9          19.4 R EG060H01
     K10G23L  C2010 04 08.37745 13 59 59.09 -26 59 13.7          19.2 R EG060H01
     K10G23L  C2010 04 08.38411 13 59 57.28 -26 58 37.6          18.9 R EG060H01
     K10G23L  C2010 04 08.39207 13 59 55.11 -26 57 54.3          19.1 R EG060H01
     K10G23L KC2010 04 09.30919 13 56 14.71 -25 37 11.4          19.5 R EG060H36
     K10G23L KC2010 04 09.31231 13 56 13.96 -25 36 53.4          19.6 R EG060H36
     K10G23L  C2010 04 09.31811613 56 11.89 -25 36 22.4          19.2 V EG060H21
     K10G23L KC2010 04 09.31861 13 56 12.25 -25 36 19.9          19.4 R EG060H36
     K10G23L  C2010 04 09.32055213 56 11.24 -25 36 10.0          19.6 V EG060H21
     K10G23L  C2010 04 09.32268513 56 10.69 -25 35 58.8          19.5 V EG060H21
     K10G23L KC2010 04 09.32489 13 56 10.59 -25 35 47.6          19.4 R EG060H36
     K10G23L  C2010 04 09.36052 13 56 02.37 -25 32 38.9          19.3 R EG060926
     K10G23L  C2010 04 09.36323 13 56 01.67 -25 32 25.4          19.5 R EG060926
     K10G23L  C2010 04 09.36594 13 56 00.96 -25 32 11.1          19.8 R EG060926

Observer details:
703 Catalina Sky Survey.  Observer R. E. Hill.  Measurers J. D. Ahern,
    E. C. Beshore, A. Boattini, G. J. Garradd, A. R. Gibbs, A. D. Grauer,
    R. E. Hill, R. A. Kowalski, S. M. Larson, R. H. McNaught.  0.68-m Schmidt
    + CCD.
926 Tenagra II Observatory.  Observers P. R. Holvorcem, M. Schwartz.  Measurer
    P. R. Holvorcem.  0.81-m f/7 Ritchey-Chretien + CCD.
H01 Magdalena Ridge Observatory, Socorro.  Observer W. H. Ryan.  2.4-m f/8.9
    reflector + CCD.
H21 Astronomical Research Observatory, Westfield.  Observer R. Holmes.
    Measurer S. Foglia.
H36 Sandlot Observatory, Scranton.  Observer G. Hug.  0.56-m reflector + CCD.

Orbital elements:
2010 GL23                                                Earth MOID = 0.0672 AU
Epoch 2010 July 23.0 TT = JDT 2455400.5                 MPC
M 158.11924              (2000.0)            P               Q
n   0.82564855     Peri.  235.86368     +0.01080863     -0.99744213
a   1.1253110      Node   213.73108     +0.95421894     +0.03141136
e   0.3450220      Incl.    7.31023     +0.29891368     -0.06420694
P   1.19           H   22.7           G   0.15           U   9
Residuals in seconds of arc
100408 703  0.3+  0.2-    100408 703  0.5+  0.9-    100409 H36  0.6+  0.3+
100408 703  0.3+  2.0-    100408 H01  0.6+  0.4-    100409 H21  0.0   0.2-
100408 703  0.1-  1.8-    100408 H01  0.5+  0.3-    100409 H21  0.1-  0.2-
100408 703  0.6+  0.7+    100408 H01  0.6+  0.2-    100409 H36  0.0   0.2-
100408 703  1.2+  1.8+    100408 H01  0.6+  0.1-    100409 926  0.2+  0.2-
100408 703  0.1-  1.6-    100409 H36  1.2+  2.1-    100409 926  0.2+  0.9-
100408 703  0.9+  0.1+    100409 H36  1.9+  0.4-    100409 926  0.1+  0.7-
100408 703  0.1-  0.8-    100409 H21  0.3+  0.2+

Ephemeris:
2010 GL23                a,e,i = 1.13, 0.35, 7                   q = 0.7371
Date    TT    R. A. (2000) Decl.     Delta      r     Elong.  Phase     V
2010 04 04    14 21.06   -33 58.0    0.126    1.105   144.8    31.5    19.8
2010 04 09    13 57.47   -26 03.2    0.141    1.133   158.2    19.2    19.7
2010 04 14    13 40.43   -19 25.9    0.160    1.161   169.4     9.2    19.7
2010 04 19    13 28.17   -14 09.3    0.184    1.187   174.5     4.7    19.8
2010 04 24    13 19.53   -10 05.2    0.211    1.213   168.5     9.5    20.4
2010 04 29    13 13.72   -07 01.2    0.241    1.238   161.2    15.2    20.9
2010 05 04    13 10.13   -04 45.3    0.275    1.262   154.6    20.1    21.4
2010 05 09    13 08.34   -03 07.2    0.310    1.285   148.6    24.2    21.8
2010 05 14    13 08.04   -01 59.1    0.348    1.306   143.2    27.6    22.2

Sonia Keys                   (C) Copyright 2010 MPC           M.P.E.C. 2010-G60

Read MPEC 2010-G59 Read MPEC 2010-G61


MPEC number:

Enter an MPEC number in one of the following forms:

  • 1997-B01 (the full form)
  • J97B01 (the packed version of the full form)
  • B01 (the abbreviated form)

Valid HTML 4.01!